x

Donna Nook (03385) Weather Station

9:00am - Thu 2nd Apr 2015 All times are BST. 1 hours from GMT.

  • Wind
    19mph, 29mph gusts
  • Air Temp 40°f
  • Sea Pressure 1019mb
  • Donna Nook
  • Donna Nook

More Historic Weather Station data

Upgrade to MSW Pro to gain access to the past 30 days of data for over 8000 Wavebouys and Weather Stations around the globe.

Join Pro

Comparision Forecast

View Surf forecast
   
Thu 04/02 9:00am 19 29 mph 1019mb 40f
8:00am 22
mph
1018mb 39f
7:00am 22 29 mph 1017mb 38f
6:00am 23
mph
1016mb 39f
5:00am 19 34 mph 1015mb 39f
4:00am 25 32 mph 1014mb 41f
3:00am 16
mph
1013mb 41f
2:00am 10
mph
1013mb 41f
1:00am 13
mph
1014mb 41f
12:00am 15
mph
1014mb 42f
Wed 04/01 11:00pm 10
mph
1014mb 42f
10:00pm 9
mph
1015mb 43f
9:00pm 14 28 mph 1015mb 44f
8:00pm 16
mph
1016mb 45f
7:00pm 15 34 mph 1016mb 46f
6:00pm 18 36 mph 1016mb 47f
5:00pm 22 43 mph 1017mb 48f
4:00pm 21 43 mph 1017mb 50f
3:00pm 23 38 mph 1017mb 50f
2:00pm 21 34 mph 1018mb 50f
1:00pm 23 40 mph 1018mb 49f
12:00pm 28 40 mph 1019mb 47f
11:00am 30 41 mph 1019mb 46f
10:00am 25 41 mph 1018mb 44f
9:00am 24 38 mph 1017mb 43f
8:00am 22 39 mph 1017mb 40f
7:00am 19 33 mph 1016mb 38f
6:00am 19 32 mph 1016mb 38f
5:00am 21 31 mph 1015mb 39f
4:00am 19 31 mph 1015mb 39f
3:00am 23 38 mph 1014mb 39f
2:00am 25 40 mph 1013mb 40f
1:00am 17 37 mph 1012mb 40f
12:00am 24 45 mph 1011mb 39f
Tue 03/31 11:00pm 29 45 mph 1010mb 40f
10:00pm 30 48 mph 1009mb 41f
9:00pm 22 40 mph 1009mb 41f
8:00pm 24 47 mph 1009mb 41f
7:00pm 33 53 mph 1008mb 44f
6:00pm 22 62 mph 1007mb 44f
5:00pm 21 48 mph 1006mb 45f
4:00pm 30 53 mph 1005mb 47f
3:00pm 32 56 mph 1004mb 50f
2:00pm 31 51 mph 1003mb 49f
1:00pm 24 46 mph 1002mb 49f
12:00pm 36 54 mph 1001mb 49f
11:00am 36 51 mph 1000mb 49f
10:00am 32 53 mph 999mb 47f
9:00am 33 51 mph 997mb 47f
8:00am 37 54 mph 994mb 46f
7:00am 32 52 mph 991mb 46f
6:00am 31 55 mph 989mb 47f
5:00am 29 51 mph 987mb 48f
4:00am 28 49 mph 987mb 49f
3:00am 24 48 mph 986mb 49f
1:00am 29 41 mph 986mb 52f
12:00am 30 41 mph 987mb 50f
Mon 03/30 11:00pm 25 36 mph 990mb 47f
10:00pm 22 36 mph 993mb 44f
9:00pm 23 36 mph 996mb 43f
8:00pm 16 30 mph 998mb 42f
7:00pm 23 34 mph 1001mb 44f
6:00pm 18 33 mph 1003mb 48f
5:00pm 17 32 mph 1004mb 49f
4:00pm 21 34 mph 1005mb 49f
3:00pm 17 32 mph 1006mb 49f
2:00pm 16 29 mph 1007mb 49f
1:00pm 17 36 mph 1007mb 47f
12:00pm 21 33 mph 1007mb 47f
11:00am 18 34 mph 1006mb 46f
10:00am 24 36 mph 1005mb 43f
9:00am 21 38 mph 1004mb 42f
8:00am 23 34 mph 1003mb 40f
7:00am 26 39 mph 1001mb 40f
6:00am 19 31 mph 1000mb 40f
5:00am 15
mph
999mb 40f
4:00am 11
mph
998mb 39f
3:00am 11
mph
998mb 40f
2:00am 11
mph
997mb 41f
1:00am 15 29 mph 996mb 41f
12:00am 15
mph
995mb 42f
Sun 03/29 11:00pm 18
mph
994mb 42f
10:00pm 14 43 mph 994mb 43f
9:00pm 17 45 mph 994mb 45f
8:00pm 16 34 mph 993mb 46f
7:00pm 17 43 mph 992mb 47f
6:00pm 28 46 mph 991mb 49f
5:00pm 30 47 mph 990mb 48f
4:00pm 23 33 mph 989mb 48f
3:00pm 19
mph
988mb 48f
2:00pm 13
mph
987mb 46f
1:00pm 9
mph
987mb 45f
12:00pm 11
mph
989mb 45f
11:00am 21
mph
991mb 46f
10:00am 18
mph
993mb 48f